Showing default

XCUBE-1, 62400

Orbit data source: Space-Track

XCUBE-1, 62400 is an American payload satellite in LEO that was launched on Sat, 21 Dec 2024 UTC via an FALCON 9 launch vehicle from the Air Force Western Test Range (AFWTR). Payload-class satellites include a variety of spacecraft equipped with specific instruments for various scientific and technological missions. These include communications satellites like Starlink; space stations such as the ISS; scientific satellites like the Hubble; Earth observation satellites from companies like Planet Labs, Umbra, and HawkEye 360; GPS; miniature CubeSats for education and research; and military/defense satellites.

Loading next visibility...
Identifier
62400, 2024-247Z
Orbit
LEO
Country
Flag of USUS
Related business
Manufacturer
EXOBOT
Mission
Operational Commercial Technology
Bus & Motor
CUBESAT 6U, Unknown motor
Mass
12 kg wet, 12 kg dry
Launch date (UTC)
2024-12-21 (1 year ago)
Launch vehicle
FALCON 9
Launch site
Air Force Western Test Range (AFWTR)
Object type
Payload
Rocket body
Debris
Shape & HBR
Box + 2 Pan, 1.0 m
Radar Cross Section
0.138 m², Small (<0.1 m²)

Expand to show TLE details & history
Last TLE update: 13 hours ago

TLE from 13 hours ago
0 XCUBE-1
1 62400U 24247Z   26036.70151795  .00015648  00000-0  58407-3 0  9994
2 62400  44.9971 291.2905 0004952 163.0939 197.0109 15.27283902 62843
Epoch: 2026-02-05T16:50Z
TLE epoch observation values (Epoch: 2026-02-05T16:50:11.150Z)
Latitude
-0.00008°
Longitude
-97.10601°
Altitude
487.183 km
Speed
7.621 km/s
True Right ascension
19h 25m 09s
True Declination
0° 00' 00"
Sunlit
Object was in daylight at epoch
Visualization orbit readout
Latitude
Unknown
Longitude
Unknown
Altitude
Unknown
Speed
Unknown
Apparent Right ascension
Unknown
Apparent Declination
Unknown
Sunlit
N/A
Visualization observer readout
Local Sidereal Time
08:23:01
Azimuth
Unknown
Elevation
Unknown
Doppler factor
Unknown
Orbital elements
Apogee altitude
488.944 km
Perigee altitude
482.146 km
Semi-major axis
6,863.682 km
Eccentricity
0.0005
Inclination
44.9971°
RAAN
291.2905°
Arg. of periapsis
163.0939°
True anomaly
196.99431°
Mean anomaly
197.0109°
Eccentric anomaly
197.0026°
Mean motion
3.81687 °/min
Orbital period
94.32 mins
BSTAR
0.00058407
Loading maneuver chart data...
Computing Atmospheric mass density...
Loading historical data...
Loading historical data...
Loading historical data...
Loading historical data...
Loading historical data...
Loading historical data...
Loading historical data...

Documentation

Showing up to 5 results
|